Home > Weather > Saguenay > Past weeks

Flag for Canada Weather for the Past 2 Weeks in Saguenay, Quebec, Canada

Now
9 °F

Frigid.


Feels Like: 9 °F
Forecast: 7 / 17 °F
Wind: 1 mph from West

Location: Jonquiere Airport

Current Time: Feb 10, 2016 at 7:05:41 AM

Latest Report: Feb 10, 2016 at 6:00 AM


Visibility: N/A

Pressure: 29.57 "Hg

Humidity: 94%

Dew point: 8 °F

Location of SaguenayLocation

Historic Weather in Saguenay — Graph

°F

Saguenay Temperature Yesterday

Maximum temperature yesterday: 17 °F (at 3:00 PM)
Minimum temperature yesterday: 11 °F (at 12:00 AM)
Average temperature yesterday: 14 °F

High & Low Weather Summary for the Past Weeks

 TemperatureHumidityPressure
High38 °F (Feb 4, 8:00 AM)100% (Jan 26, 11:00 AM)30.49 "Hg (Jan 26, 11:00 AM)
Low-13 °F (Feb 8, 7:00 AM)54% (Feb 7, 3:00 PM)29.27 "Hg (Feb 1, 6:00 AM)
Average16 °F85%29.93 "Hg
* Reported Jan 26 6:00 AM — Feb 10 6:00 AM, Saguenay, Weather by CustomWeather, © 2016

Note: Actual official high and low records may vary slightly from our data, if they occured in-between our weather recording intervals... More about our weather records

Advertising

Saguenay Weather History for the Previous 24 Hours

 ConditionsComfort  
Time TempWeatherWind HumidityBarometerVisibility
6:00 AM
Wed, Feb 10
9 °FFrigid.1 mph94%29.57 "HgN/A
5:00 AM10 °FCold.1 mph95%29.57 "HgN/A
4:00 AM11 °FCold.No wind100%29.57 "HgN/A
3:00 AM11 °FCold.1 mph95%29.59 "HgN/A
2:00 AM12 °FCold.No wind96%29.61 "HgN/A
1:00 AM12 °FCold.No wind96%29.61 "HgN/A
12:00 AM13 °FCold.1 mph96%29.63 "HgN/A
11:00 PM
Tue, Feb 9
14 °FCold.No wind95%29.64 "HgN/A
10:00 PM14 °FCold.1 mph95%29.67 "HgN/A
9:00 PM14 °FCold.2 mph100%29.69 "HgN/A
8:00 PM14 °FCold.1 mph100%29.70 "HgN/A
7:00 PM15 °FCold.2 mph95%29.71 "HgN/A
6:00 PM15 °FCold.2 mph93%29.73 "HgN/A
5:00 PM16 °FCold.3 mph91%29.74 "HgN/A
4:00 PM17 °FCold.6 mph88%29.77 "HgN/A
3:00 PM17 °FCold.3 mph88%29.78 "HgN/A
2:00 PM17 °FCold.1 mph89%29.79 "HgN/A
1:00 PM17 °FCold.1 mph88%29.80 "HgN/A
12:00 PM16 °FCold.3 mph82%29.83 "HgN/A
11:00 AM16 °FCold.6 mph75%29.86 "HgN/A
10:00 AM15 °FCold.5 mph84%29.88 "HgN/A
9:00 AM14 °FCold.2 mph81%29.88 "HgN/A
8:00 AM12 °FCold.No wind83%29.90 "HgN/A
7:00 AM11 °FCold.2 mph84%29.91 "HgN/A
Weather by CustomWeather, © 2016

See weather overviewHow to use our weather pages